Preview of NWS' New Version of Forecast
This preview is not operational and should not be used for support decisions.

Regional Weather Roundup (RWR)

Issued by National Weather Service (NWS)

                            
000
ASCA42 TJSJ 182110
RWRPR 
PUERTO RICO/U.S. VIRGIN ISLANDS HOURLY WEATHER ROUNDUP
NATIONAL WEATHER SERVICE SAN JUAN PR
500 PM AST MON MAR 18 2019

PRZ001>002-007>008-010-182200-
PUERTO RICO
  
CITY           SKY/WX    TMP DP  RH WIND       PRES   REMARKS
SAN JUAN LMM   MOSUNNY   82  64  54 E17       29.97S                  
AGUADILLA      PTSUNNY   79  70  73 NE7       29.98S                  
$$

VIZ001>002-182200-
U.S. VIRGIN ISLANDS
  
CITY           SKY/WX    TMP DP  RH WIND       PRES   REMARKS
CHARLOTTE AMA  SUNNY     81  64  57 SE16      29.98S                  
CHRISTIANSTED  MOSUNNY   81  64  57 E15       29.99S                  
$$

HOURLY WEATHER ROUNDUP FOR THE NEWS MEDIA
  
CITY           SKY/WX    TMP DP  RH WIND       PRES   REMARKS
ORLANDO        CLOUDY    64  50  60 NE15      30.09S                  
NEW YORK       PTSUNNY   42  23  46 S15       30.26R                  
NEWARK         PTSUNNY   45  12  26 NW8       30.25R                  
CHICAGO        PTSUNNY   41  23  48 W12       30.34S                  
HARTFORD       FAIR      42  13  30 NW6       30.20S                  
BOSTON         FAIR      43   3  19 W12G23    30.20R                  
DALLAS         MOSUNNY   70  32  24 VRB6      30.24F                  
PHILADELPHIA   PTSUNNY   46  18  32 NW9G20    30.27R                  
LOS ANGELES    MOSUNNY   68  54  60 W13       29.97F                  
WASHINGTON DC  PTSUNNY   47  19  33 W7        30.25R